This is the latest recevied weather packets stored in our database for station/object W4UWO. If no packets are shown the sender has not sent any weather packets the latest 10 day(s).
| Time | Temp. | Humidity | Pressure | Rain* | Wind** | Luminosity | Snow |
|---|---|---|---|---|---|---|---|
| 1788618890 | 27.22° C | 81% | 1016.2 hPa | 0 mm | - | 146 W/m² | - |
| 1788618585 | 27.22° C | 81% | 1016.4 hPa | 0 mm | - | 139 W/m² | - |
| 1788618284 | 26.67° C | 82% | 1016.5 hPa | 0 mm | - | 132 W/m² | - |
| 1788617980 | 26.67° C | 82% | 1016.5 hPa | 0 mm | - | 123 W/m² | - |
| 1788617680 | 26.67° C | 83% | 1016.6 hPa | 0 mm | - | 113 W/m² | - |
| 1788617376 | 26.67° C | 84% | 1016.5 hPa | 0 mm | - | 101 W/m² | - |
| 1788617071 | 26.67° C | 85% | 1016.5 hPa | 0 mm | - | 93 W/m² | - |
| 1788616770 | 26.67° C | 85% | 1016.5 hPa | 0 mm | - | 86 W/m² | - |
| 1788616466 | 26.67° C | 85% | 1016.6 hPa | 0 mm | - | 75 W/m² | - |
| 1788616161 | 26.67° C | 85% | 1016.6 hPa | 0 mm | - | 70 W/m² | - |
| 1788615860 | 26.67° C | 84% | 1016.6 hPa | 0 mm | - | 73 W/m² | - |
| 1788615555 | 26.67° C | 85% | 1016.6 hPa | 0 mm | - | 75 W/m² | - |
| 1788615255 | 26.11° C | 85% | 1016.6 hPa | 0 mm | - | 67 W/m² | - |
| 1788614954 | 26.11° C | 85% | 1016.7 hPa | 0 mm | - | 64 W/m² | - |
| 1788614650 | 26.11° C | 85% | 1016.6 hPa | 0 mm | - | 62 W/m² | - |
| 1788614344 | 26.11° C | 85% | 1016.5 hPa | 0 mm | - | 59 W/m² | - |
| 1788614040 | 26.11° C | 85% | 1016.6 hPa | 0 mm | - | 60 W/m² | - |
| 1788613735 | 25.56° C | 85% | 1016.7 hPa | 0 mm | - | 57 W/m² | - |
| 1788613434 | 25.56° C | 85% | 1016.5 hPa | 0 mm | - | 60 W/m² | - |
| 1788613129 | 25.56° C | 86% | 1016.7 hPa | 0 mm | - | 66 W/m² | - |
| 1788612824 | 25.56° C | 86% | 1016.4 hPa | 0 mm | - | 81 W/m² | - |
| 1788612520 | 25.56° C | 86% | 1016.6 hPa | 0 mm | - | 74 W/m² | - |
| 1788612216 | 25.56° C | 86% | 1016.8 hPa | 0 mm | - | 81 W/m² | - |
| 1788611916 | 25° C | 87% | 1016.8 hPa | 0 mm | - | 71 W/m² | - |
| 1788611613 | 25° C | 88% | 1016.7 hPa | 0 mm | - | 79 W/m² | - |
* Rain latest hour (hover to see other rain measurements)
** Current wind speed in m/s (hover to see current wind gust speed)